This is the latest recevied weather packets stored in our database for station/object DL4NBA-1. If no packets are shown the sender has not sent any weather packets the latest 10 day(s).
| Time | Temp. | Humidity | Pressure | Rain* | Wind** | Luminosity | Snow |
|---|---|---|---|---|---|---|---|
| 1777838475 | 15.56° C | - | - | 0 mm | 1.34 m/s, 215° | - | - |
| 1777838176 | 16.11° C | - | - | 0 mm | 1.79 m/s, 221° | - | - |
| 1777837875 | 16.67° C | - | - | 0 mm | 1.79 m/s, 217° | - | - |
| 1777837278 | 16.11° C | - | - | 0 mm | 0 m/s | - | - |
| 1777836979 | 15° C | - | - | 0 mm | 0 m/s | - | - |
| 1777836080 | 16.11° C | - | - | 0 mm | 0 m/s | - | - |
| 1777835483 | 16.11° C | - | - | 0 mm | 0 m/s | - | - |
| 1777835184 | 16.11° C | - | - | 0 mm | 0 m/s | - | - |
| 1777834881 | 16.11° C | - | - | 0 mm | 0 m/s | - | - |
| 1777834583 | 16.11° C | - | - | 0 mm | 0 m/s | - | - |
| 1777834284 | 18.33° C | - | - | 0 mm | 0 m/s | - | - |
| 1777833383 | 18.33° C | - | - | 0 mm | 0 m/s | - | - |
| 1777833084 | 18.89° C | - | - | 0 mm | 0 m/s | - | - |
| 1777832786 | 18.89° C | - | - | 0 mm | 0 m/s | - | - |
| 1777832188 | 19.44° C | - | - | 0 mm | 0.89 m/s, 269° | - | - |
| 1777831587 | 19.44° C | - | - | 0 mm | 0.89 m/s, 277° | - | - |
| 1777831289 | 20° C | - | - | 0 mm | 1.34 m/s, 285° | - | - |
| 1777830990 | 19.44° C | - | - | 0 mm | 1.34 m/s, 291° | - | - |
| 1777830691 | 20° C | - | - | 0 mm | 0.89 m/s, 274° | - | - |
| 1777830389 | 20.56° C | - | - | 0 mm | 0.89 m/s, 277° | - | - |
| 1777830090 | 20.56° C | - | - | 0 mm | 1.34 m/s, 267° | - | - |
| 1777829791 | 21.11° C | - | - | 0 mm | 1.34 m/s, 311° | - | - |
| 1777829493 | 21.67° C | - | - | 0 mm | 1.34 m/s, 307° | - | - |
| 1777828593 | 22.78° C | - | - | 0 mm | 1.79 m/s, 300° | - | - |
| 1777828294 | 24.44° C | - | - | 0 mm | 2.24 m/s, 300° | - | - |
* Rain latest hour (hover to see other rain measurements)
** Current wind speed in m/s (hover to see current wind gust speed)